Weather History for Ballenas Island, BC

Change the Weather History Date:

Monday, October 22, 2012

  Actual Average Record
Temperature  
Mean Temperature 44 °F -  
Max Temperature 47 °F - - ()
Min Temperature 41 °F - - ()
Degree Days  
Heating Degree Days 21    
Moisture  
Dew Point 40 °F    
Average Humidity 81    
Maximum Humidity 90    
Minimum Humidity 68    
Precipitation  
Precipitation 0.12 in - - ()
Sea Level Pressure  
Sea Level Pressure 29.65 in    
Wind  
Wind Speed 10 mph ()    
Max Wind Speed 20 mph    
Max Gust Speed -    
T = Trace of Precipitation, MM = Missing Value Source: Averaged Metar Reports

Daily Weather History Graph

Daily Weather History Graph

Search for Another Location

Airport:

Trip Planner

Search our weather history database for the weather conditions in past years. The results will help you decide how hot, cold, wet, or windy it might be!

Date:

Astronomy

Oct. 22, 2012 Rise Set
Actual Time 7:49 AM PDT 6:11 PM PDT
Civil Twilight 7:16 AM PDT 6:44 PM PDT
Nautical Twilight 6:39 AM PDT 7:21 PM PDT
Astronomical Twilight 6:02 AM PDT 7:58 PM PDT
Moon 2:56 PM PDT (10/22) 12:06 AM PDT (10/22)
Length of Visible Light 11h 27m
Length of Day
10h 21m
First Quarter, 57% of the Moon is Illuminated
Oct 22
First Quarter
Oct 29
Full
Nov 6
Last Quarter
Nov 13
New
Nov 20
First Quarter

Hourly Weather History & Observations

Time (PDT) Temp. Windchill Dew Point Humidity Pressure Visibility Wind Dir Wind Speed Gust Speed Precip Events Conditions
12:00 AM 46.6 °F - 39.9 °F 78% 29.78 in - ESE 19.6 mph - 0.01 in   Unknown
1:00 AM 46.9 °F - 40.5 °F 78% 29.77 in - ESE 19.6 mph - N/A   Unknown
2:00 AM 46.6 °F - 38.8 °F 74% 29.75 in - ESE 17.3 mph - N/A   Unknown
3:00 AM 45.5 °F 42.5 °F 39.6 °F 80% 29.74 in - SE 5.8 mph - N/A   Unknown
4:00 AM 43.7 °F 42.1 °F 39.2 °F 84% 29.73 in - SE 3.5 mph - N/A   Unknown
5:00 AM 44 °F - 39 °F 75% 29.71 in - SE 4.6 mph - -  
5:00 AM 43.5 °F 40.9 °F 38.7 °F 83% 29.71 in - SE 4.6 mph - N/A   Unknown
6:00 AM 43.3 °F 40.7 °F 38.5 °F 83% 29.70 in - South 4.6 mph - N/A   Unknown
7:00 AM 42.3 °F 37.3 °F 38.8 °F 88% 29.68 in - WSW 8.1 mph - N/A   Unknown
8:00 AM 41.7 °F 36.7 °F 38.7 °F 89% 29.67 in - WSW 8.1 mph - N/A   Unknown
9:00 AM 41.9 °F 35.4 °F 38.3 °F 87% 29.66 in - SW 11.5 mph - N/A   Unknown
10:00 AM 45.5 °F 38.6 °F 39.7 °F 80% 29.65 in - WNW 16.1 mph - N/A   Unknown
11:00 AM 46 °F - 41 °F 77% 29.64 in - WNW 12.7 mph - -  
11:00 AM 45.9 °F 40.0 °F 41.0 °F 83% 29.64 in - WNW 12.7 mph - N/A   Unknown
12:00 PM 45.7 °F 39.1 °F 40.8 °F 83% 29.63 in - West 15.0 mph - N/A   Unknown
1:00 PM 45.1 °F 38.4 °F 40.3 °F 83% 29.60 in - West 15.0 mph - N/A   Unknown
2:00 PM 45.7 °F 40.2 °F 39.7 °F 80% 29.59 in - West 11.5 mph - N/A   Unknown
3:00 PM 46.0 °F 40.6 °F 39.2 °F 77% 29.58 in - West 11.5 mph - N/A   Unknown
4:00 PM 46.4 °F 41.5 °F 39.7 °F 78% 29.57 in - West 10.4 mph - N/A   Unknown
5:00 PM 47 °F - 40 °F 68% 29.58 in - WSW 5.8 mph - -  
5:00 PM 46.8 °F - 39.7 °F 77% 29.58 in - WSW 5.8 mph - N/A   Unknown
6:00 PM 46.6 °F - 39.4 °F 76% 29.58 in - WSW 5.8 mph - N/A   Unknown
7:00 PM 46.2 °F - 38.1 °F 73% 29.60 in - SSW 2.3 mph - N/A   Unknown
8:00 PM 45.7 °F 40.2 °F 39.6 °F 79% 29.61 in - ESE 11.5 mph - N/A   Unknown
9:00 PM 43.3 °F - 39.6 °F 87% 29.61 in - SSE 2.3 mph - 0.03 in   Unknown
10:00 PM 43.2 °F - 40.3 °F 90% 29.62 in - East 2.3 mph - 0.04 in   Unknown
11:00 PM 43 °F - 40 °F 85% 29.62 in - South 1.2 mph - -  
11:00 PM 42.8 °F - 39.9 °F 90% 29.62 in - South 1.2 mph - 0.05 in   Unknown